{"data":{"norad_id":52706,"epoch":"2026-09-19T19:18:48.424032Z","epoch_age_seconds":126542,"freshness":"FRESH","line1":"1 52706U 22053BC  26262.80472713  .00000312  00000+0  19829-4 0  9990","line2":"2 52706  53.1609 329.1381 0001127  69.6753 290.4371 15.35412157240804","mean_motion":15.35412157,"eccentricity":0.0001127,"inclination_deg":53.1609,"raan_deg":329.1381,"arg_perigee_deg":69.6753,"mean_anomaly_deg":290.4371,"bstar":1.9829e-5,"rev_number":24080,"period_min":93.785892825909,"perigee_km":458.9259251861,"apogee_km":460.46717286805,"semimajor_km":6837.8335490271,"source":"CELESTRAK","updated_at":"2026-09-20T09:00:40.109819Z"}}